Change the Weather History Date:

Saturday, April 26, 2014

  Actual Average Record
Temperature  
Mean Temperature 82 °F -  
Max Temperature 100 °F - - ()
Min Temperature 64 °F - - ()
Cooling Degree Days 17    
Growing Degree Days 32 (Base 50)    
Moisture  
Dew Point 59 °F    
Average Humidity 54    
Maximum Humidity 94    
Minimum Humidity 9    
Precipitation  
Precipitation 0.00 in - - ()
Sea Level Pressure  
Sea Level Pressure 29.80 in    
Wind  
Wind Speed 4 mph ()    
Max Wind Speed 7 mph    
Max Gust Speed -    
T = Trace of Precipitation, MM = Missing Value Source: Averaged Metar Reports

Daily Weather History Graph

Daily Weather History Graph

Search for Another Location

Airport or City:

Trip Planner

Search our weather history database for the weather conditions in past years. The results will help you decide how hot, cold, wet, or windy it might be!

Date:

Astronomy

Apr. 26, 2014 Rise Set
Actual Time 5:56 AM AWST 5:28 PM AWST
Civil Twilight 5:34 AM AWST 5:50 PM AWST
Nautical Twilight 5:08 AM AWST 6:16 PM AWST
Astronomical Twilight 4:42 AM AWST 6:42 PM AWST
Moon 2:52 AM AWST (4/26) 3:14 PM AWST (4/26)
Length of Visible Light 12h 16m
Length of Day
11h 32m
Waning Crescent, 11% of the Moon is Illuminated
Apr 26
Waning Crescent
Apr 29
New
May 7
First Quarter
May 15
Full
May 21
Last Quarter

Hourly Weather History & Observations

Time (AWST) Temp. Heat Index Dew Point Humidity Pressure Visibility Wind Dir Wind Speed Gust Speed Precip Events Conditions
12:00 AM 69 °F - 62 °F 71% 29.82 in - SW 4.6 mph - -  
12:00 AM 69.8 °F - 62.6 °F 78% 29.83 in - SW 4.6 mph - N/A   Unknown
1:00 AM 69.8 °F - 62.6 °F 78% 29.80 in - SSW 4.6 mph - N/A   Unknown
2:00 AM 71.6 °F - 66.2 °F 83% 29.80 in - SSW 4.6 mph - N/A   Unknown
3:00 AM 67 °F - 63 °F 81% 29.80 in - South 5.8 mph - -  
3:00 AM 68.0 °F - 62.6 °F 83% 29.80 in - South 5.8 mph - N/A   Unknown
4:00 AM 66.2 °F - 62.6 °F 88% 29.80 in - South 5.8 mph - N/A   Unknown
5:00 AM 69.8 °F - 68.0 °F 94% 29.80 in - South 6.9 mph - N/A   Unknown
6:00 AM 65 °F - 63 °F 92% 29.83 in - SSE 3.5 mph - -  
6:00 AM 66.2 °F - 62.6 °F 88% 29.83 in - SSE 3.5 mph - N/A   Unknown
6:58 AM 75.2 °F - 69.8 °F 83% 29.86 in - NE 1.2 mph - N/A   Unknown
7:00 AM 75.2 °F - 69.8 °F 83% 29.86 in - NE 1.2 mph - N/A   Unknown
8:00 AM 84.2 °F 85.6 °F 64.4 °F 51% 29.86 in - SE 4.6 mph - N/A   Unknown
9:00 AM 89 °F - 57 °F 23% 29.86 in - South 4.6 mph - -  
9:00 AM 89.6 °F 88.1 °F 57.2 °F 33% 29.86 in - South 4.6 mph - N/A   Unknown
10:00 AM 93.2 °F 91.3 °F 55.4 °F 28% 29.83 in - SSW 6.9 mph - N/A   Unknown
11:00 AM 95.0 °F - 50.0 °F 22% 29.80 in - South 6.9 mph - N/A   Unknown
12:00 PM 97 °F - 48 °F 11% 29.77 in - South 6.9 mph - -  
12:00 PM 96.8 °F - 48.2 °F 19% 29.77 in - South 6.9 mph - N/A   Unknown
1:00 PM 100.4 °F - 48.2 °F 17% 29.74 in - WSW 5.8 mph - N/A   Unknown
2:00 PM 98.6 °F - 46.4 °F 17% 29.71 in - NNE 6.9 mph - N/A   Unknown
3:00 PM 99 °F - 46 °F 9% 29.72 in - NE 5.8 mph - -  
3:00 PM 98.6 °F - 46.4 °F 17% 29.71 in - NE 5.8 mph - N/A   Unknown
4:00 PM 98.6 °F - 48.2 °F 18% 29.71 in - ENE 5.8 mph - N/A   Unknown
5:00 PM 93.2 °F 91.9 °F 57.2 °F 30% 29.74 in - NW 5.8 mph - N/A   Unknown
6:00 PM 84 °F - 57 °F 29% 29.77 in - NW 4.6 mph - -  
6:00 PM 84.2 °F 83.5 °F 57.2 °F 40% 29.77 in - NW 4.6 mph - N/A   Unknown
7:00 PM 77.0 °F - 59.0 °F 54% 29.80 in - WNW 4.6 mph - N/A   Unknown
8:00 PM 78.8 °F - 66.2 °F 65% 29.83 in - WNW 5.8 mph - N/A   Unknown
9:00 PM 75 °F - 67 °F 68% 29.83 in - NW 4.6 mph - -  
9:00 PM 75.2 °F - 66.2 °F 73% 29.83 in - NW 4.6 mph - N/A   Unknown
10:00 PM 77.0 °F - 69.8 °F 78% 29.83 in - West 4.6 mph - N/A   Unknown
11:00 PM 75.2 °F - 68.0 °F 78% 29.83 in - SW 4.6 mph - N/A   Unknown